STARLINK-32156, 60278

Orbit data source: Space-Track

STARLINK-32156, 60278 is a payload satellite owned by SpaceX/Seattle (US) in LEO that was launched on Sun, 28 Jul 2024 UTC via an FALCON 9 launch vehicle from the Air Force Eastern Test Range (AFETR). Payload-class satellites include a variety of spacecraft equipped with specific instruments for various scientific and technological missions. These include communications satellites like Starlink; space stations such as the ISS; scientific satellites like the Hubble; Earth observation satellites from companies like Planet Labs, Umbra, and HawkEye 360; GPS; miniature CubeSats for education and research; and military/defense satellites.

Loading next visibility...
Identifier
60278, 2024-132A
Orbit
LEO
Last TLE update
17 hours ago
Origin
Manufacturer
SpaceX/Seattle
Mission
Operational spacecraft
Bus & Motor
STARLINK V2M, Unknown motor
Mass
730 kg wet, ~700 kg dry
Launch date (UTC)
2024-07-28 (10 months ago)
Launch vehicle
FALCON 9
Launch site
Air Force Eastern Test Range (AFETR)
Object type
Payload
Rocket body
Debris
Shape & HBR
Unknown
Radar Cross Section
Large (>1 m²)

Expand to show TLE details & history

TLE from 17 hours ago
0 STARLINK-32156
1 60278U 24132A   25162.90774469 -.00000384  00000-0 -83656-6 0  9998
2 60278  53.1600 230.1044 0001210  92.4229 267.6910 15.30191256 51321
Epoch: 2025-06-11T21:47Z
TLE epoch observation values (Epoch: 2025-06-11T21:47:09.141Z)
Latitude
-0.00003°
Longitude
2.83278°
Altitude
476.174 km
Speed
7.629 km/s
True Right ascension
15h 20m 25s
True Declination
0° 00' 00"
Sunlit
Object was in full shadow at epoch
Visualization orbit readout
Latitude
-53.26569°
Longitude
-93.75153°
Altitude
494.592 km
Speed
7.617 km/s
Apparent Right ascension
11h 09m 52s
Apparent Declination
-50° 59' 10"
Sunlit
Object is in daylight
Visualization observer readout
Local Sidereal Time
01:01:54
Azimuth
128.993° SE
Elevation
-67.647°
Doppler factor
1
Orbital elements
Apogee altitude
476.327 km
Perigee altitude
474.668 km
Semi-major axis
6,853.635 km
Eccentricity
0.00012
Inclination
53.16°
RAAN
230.1044°
Arg. of periapsis
92.4229°
True anomaly
Unknown
Mean anomaly
267.691°
Eccentric anomaly
Unknown
Mean motion
3.82527 °/min
Orbital period
94.11 mins
BSTAR
-8.3656e-7
Loading maneuver chart data...
Loading SW <> Apogee altitude chart data...
Loading historical data...
Loading historical data...
Loading historical data...
Loading historical data...
Loading historical data...
Loading historical data...
Loading historical data...

STARLINK-32156 Visibility forecast

Observer location: undefined°, undefined°

Span
Click to sort rows by Start time (UTC) header in descending order
Start Az.
Max El. time (UTC)
Max El. Az.
Max El.
End time (UTC)
End Az.
5 mins2025-06-13 06:53:40.350Z222.333° SW2025-06-13 06:55:40.350Z183.518° SSW43.811°2025-06-13 06:58:40.350Z53.349° ENE
4 mins2025-06-13 08:32:40.350Z305.006° NW2025-06-13 08:33:40.350Z325.053° NNW18.203°2025-06-13 08:36:40.350Z22.429° NNE
5 mins2025-06-13 13:28:40.350Z319.817° NNW2025-06-13 13:30:40.350Z8.67° NNE41.339°2025-06-13 13:33:40.350Z117.888° SE
|